Regional Weather Roundup
Issued by NWS Little Rock, AR

Home | Current Version | Previous Version | Text Only | Print | Product List | Glossary On
Versions: 1 2 3 4 5 6 7 8 9 10 11 12 13 14 15 16 17 18 19 20 21 22 23 24 25 26 27 28 29 30 31 32 33 34 35 36 37 38 39 40 41 42 43 44 45 46 47 48 49 50
000
ASUS44 KLZK 232105
RWRLZK

WEATHER ROUNDUP FOR ARKANSAS
NATIONAL WEATHER SERVICE LITTLE ROCK AR
300 PM CST SUN NOV 23 2014

NOTE: "FAIR" INDICATES FEW OR NO CLOUDS BELOW 12,000 FEET WITH NO
SIGNIFICANT WEATHER AND/OR OBSTRUCTIONS TO VISIBILITY.

ARZ001-003-010-029-232200-
NORTHWEST ARKANSAS

CITY           SKY/WX    TMP DP  RH WIND       PRES   REMARKS
FAYETTEVILLE   SUNNY     64  55  72 S12       29.28F
FORT SMITH     MOSUNNY   68  58  70 NE7       29.28F
HARRISON       CLOUDY    62  56  80 S6        29.33F
BENTONVILLE    SUNNY     66  54  63 S9        29.30F
ROGERS         MOSUNNY   65  53  65 S8        29.29F
SILOAM SPGS    MOSUNNY   66  54  63 S13       29.30F
HIGHFILL       MOSUNNY   64  54  69 S10       29.28F
SPRINGDALE     MOSUNNY   64  55  72 S15       29.30F
$$

ARZ004-005-016-232200-
NORTH CENTRAL ARKANSAS

CITY           SKY/WX    TMP DP  RH WIND       PRES   REMARKS
BATESVILLE     CLOUDY    59  57  94 SE5       29.34F
FLIPPIN        CLOUDY    57  54  88 CALM      29.34F
MTN HOME       CLOUDY    58  57  97 S3        29.33F
$$

ARZ040-041-232200-
WEST CENTRAL ARKANSAS

CITY           SKY/WX    TMP DP  RH WIND       PRES   REMARKS
MENA           PTSUNNY   68  59  73 SW6       29.34R
MOUNT IDA      MOSUNNY   67  57  70 VRB5      29.30F
$$

ARZ009-017-025-026-028-232200-
NORTHEAST ARKANSAS

CITY           SKY/WX    TMP DP  RH WIND       PRES   REMARKS
CORNING        LGT RAIN  57  57 100 SE6       29.34F
JONESBORO      LGT RAIN  57  57 100 SE5       29.34F
NEWPORT        LGT RAIN  59  59 100 S3        29.35F
WALNUT RIDGE   CLOUDY    57  55  94 S3        29.34F
BLYTHEVILLE    LGT RAIN  64  58  80 E10       29.33F
$$

ARZ022-023-033-042-044-232200-
CENTRAL ARKANSAS

CITY           SKY/WX    TMP DP  RH WIND       PRES   REMARKS
LITTLE ROCK    LGT RAIN  62  58  86 SW7       29.36F FOG
N LITTLE ROCK  CLOUDY    60  60 100 S7        29.36F
JACKSONVILLE   CLOUDY    61  60  98 SW8       29.36S
SEARCY         CLOUDY    60  59  96 S6        29.37F
HOT SPRINGS    CLOUDY    65  60  84 S6        29.35F
RUSSELLVILLE   CLOUDY    63  60  90 E3        29.32F
CLINTON        CLOUDY    59  59 100 S3        29.36F FOG
$$

ARZ036-232200-
EAST ARKANSAS

CITY           SKY/WX    TMP DP  RH WIND       PRES   REMARKS
WEST MEMPHIS   CLOUDY    60  60 100 S3        29.31F
$$

ARZ050-053-066-070-073-232200-
SOUTHWEST ARKANSAS

CITY           SKY/WX    TMP DP  RH WIND       PRES   REMARKS
ARKADELPHIA    FAIR      69  63  81 S9        29.35F
CAMDEN         PTSUNNY   68  59  73 NE6       29.37F
TEXARKANA      SUNNY     71  59  65 S12       29.36F
EL DORADO      MOSUNNY   69  61  75 S9        29.39F
DE QUEEN       SUNNY     71  58  63 S13       29.31S
$$

ARZ056-057-069-232200-
SOUTHEAST ARKANSAS

CITY           SKY/WX    TMP DP  RH WIND       PRES   REMARKS
PINE BLUFF     CLOUDY    63  60  90 SW9       29.38F
STUTTGART      CLOUDY    61  59  94 SW10      29.37F
MONTICELLO     CLOUDY    64  60  87 SW12      29.41F

$$




USA.gov is the U.S. government's official web portal to all federal, state and local government web resources and services.